Regional Weather Roundup
Issued by NWS

Home | Current Version | Previous Version | Graphics & Text | Print | Product List | Glossary Off
Versions: 1 2 3 4 5 6 7 8 9 10 11 12 13 14 15 16 17 18 19 20 21 22 23 24 25 26 27 28 29 30 31 32 33 34 35 36 37 38 39 40 41 42 43 44 45 46 47 48 49 50

000
ASUS43 KTOP 230559
RWRKS

WEATHER ROUNDUP FOR KANSAS
NATIONAL WEATHER SERVICE GOODLAND KS
100 AM CDT SAT AUG 23 2014

NOTE:  "FAIR" INDICATES FEW OR NO CLOUDS BELOW 12,000 FEET WITH NO
SIGNIFICANT WEATHER AND/OR OBSTRUCTIONS TO VISIBILITY.

KSZ001>006-013>018-027>032-041>047-230700-
NORTHWEST KANSAS

CITY           SKY/WX    TMP DP  RH WIND       PRES   REMARKS
GOODLAND       MOCLDY    65  64  97 E7        29.93F
6HR MIN TEMP:  64; 6HR MAX TEMP:  70; 6HR PCP:  0.61;

HAYS           FAIR      72  64  78 E9        29.89S
HILL CITY      FAIR      72  66  81 NW5       29.89F
6HR MIN TEMP:  69; 6HR MAX TEMP:  88; 6HR PCP:  0.72;

RUSSELL        FAIR      73  67  81 NE8       29.87F
6HR MIN TEMP:  73; 6HR MAX TEMP:  95; 6HR PCP: TRACE;

$$

KSZ061>065-074>080-084>089-230700-
SOUTHWEST KANSAS

CITY           SKY/WX    TMP DP  RH WIND       PRES   REMARKS
DODGE CITY     MOCLDY    79  59  50 S12       29.94R
6HR MIN TEMP:  77; 6HR MAX TEMP:  87; 6HR PCP: TRACE;

ELKHART          N/A     71  59  66 S10         N/A
GARDEN CITY    FAIR      71  67  87 CALM      29.93R
6HR MIN TEMP:  70; 6HR MAX TEMP:  87;

GREAT BEND     FAIR      81  61  50 S14       29.87S
LIBERAL        MOCLDY    72  61  68 W20       29.98R THUNDER
$$

KSZ066>073-081>083-090>101-230700-
SOUTHEAST KANSAS

CITY           SKY/WX    TMP DP  RH WIND       PRES   REMARKS
CHANUTE        FAIR      81  71  71 S10       29.93S
6HR MIN TEMP:  81; 6HR MAX TEMP:  86;

COFFEYVILLE    FAIR      81  70  69 S8        29.93S
6HR MIN TEMP:  81; 6HR MAX TEMP:  94;

HUTCHINSON     FAIR      81  65  58 S12       29.89R
6HR MIN TEMP:  76; 6HR MAX TEMP:  84; 6HR PCP: TRACE;

NEWTON         FAIR      82  63  51 S16       29.94S
PARSONS        FAIR      81  70  69 S3        29.95R
6HR MIN TEMP:  80; 6HR MAX TEMP:  90;

WICHITA INTL   FAIR      82  65  56 S13       29.89S
6HR MIN TEMP:  82; 6HR MAX TEMP:  96;

WICHITA JABRA  FAIR      83  65  54 S16       29.91R
6HR MIN TEMP:  82; 6HR MAX TEMP:  94;

WINFIELD       FAIR      82  66  58 S13       29.93R
6HR MIN TEMP:  82; 6HR MAX TEMP:  95;

$$

KSZ007>012-019>026-033>040-048>060-102>105-230700-
NORTHEAST KANSAS

CITY           SKY/WX    TMP DP  RH WIND       PRES   REMARKS
CONCORDIA      FAIR      75  73  93 NE7       29.88F
6HR MIN TEMP:  75; 6HR MAX TEMP:  86;

EMPORIA        FAIR      77  71  82 S13       29.91S
6HR MIN TEMP:  73; 6HR MAX TEMP:  78;

LAWRENCE       FAIR      78  70  76 E6        29.90F
6HR MIN TEMP:  76; 6HR MAX TEMP:  91;

MANHATTAN      FAIR      82  69  64 E5        29.87F
6HR MIN TEMP:  80; 6HR MAX TEMP:  86;

OLATHE IND     FAIR      78  70  76 SE10      29.92F
6HR MIN TEMP:  76; 6HR MAX TEMP:  80;

OLATHE EXE     FAIR      75  69  81 SE6       29.92F
6HR MIN TEMP:  75; 6HR MAX TEMP:  80;

SALINA         FAIR      82  68  62 S9        29.86F
6HR MIN TEMP:  81; 6HR MAX TEMP:  95; 6HR PCP: TRACE;

TOPEKA BILLARD FAIR      79  74  84 E5        29.89F
6HR MIN TEMP:  79; 6HR MAX TEMP:  89;

TOPEKA FORBES  FAIR      77  71  82 SE7       29.90F
6HR MIN TEMP:  77; 6HR MAX TEMP:  86;

$$


USA.gov is the U.S. government's official web portal to all federal, state and local government web resources and services.